FW0523 Weather Reports


Display with metric or nautical units.
time (UTC)temp
F
wind
direction
speed
MPH
gust
MPH
rain 1hr
in
rain 24hr
in
rain mn
in
humidity
%
barometer
mb
20260506191003 40 353 4.0 7.0 0.00 0.00 0.90 70 1019.5
20260506190003 39 340 1.0 6.0 0.00 0.00 0.82 76 1019.3
20260506182803 38 3 0.0 0.0 0.00 0.00 0.82 79 1018.9
20260506181803 37 3 0.0 0.0 0.00 0.00 0.82 81 1018.9
20260506180804 37 3 0.0 0.0 0.00 0.00 0.82 81 1018.9
20260506175803 37 3 0.0 0.0 0.00 0.00 0.82 83 1019.1
20260506174803 37 3 0.0 0.0 0.00 0.00 0.82 83 1018.9
20260506173804 37 3 0.0 0.0 0.00 0.00 0.82 86 1018.9
20260506172803 36 3 0.0 0.0 0.00 0.00 0.82 87 1018.9
20260506171803 36 3 0.0 0.0 0.00 0.00 0.81 88 1018.8
20260506170804 35 3 0.0 0.0 0.00 0.00 0.80 89 1018.7
20260506163604 33 3 0.0 0.0 0.00 0.00 0.66 91 1018.7
20260506162602 34 3 0.0 0.0 0.00 0.00 0.52 92 1018.3
20260506161603 34 3 1.0 1.0 0.00 0.00 0.44 91 1018.0
20260506155504 35 3 0.0 0.0 0.00 0.00 0.17 90 1017.4
20260506154504 35 3 0.0 0.0 0.00 0.00 0.14 91 1017.1
20260506153503 35 356 0.0 8.0 0.00 0.00 0.07 90 1017.2
20260506152504 35 353 2.0 10.0 0.00 0.00 0.03 91 1017.2
20260506151504 35 41 4.0 9.0 0.00 0.00 0.01 90 1016.6
20260506150502 36 346 7.0 13.0 0.00 0.00 0.01 86 1016.2
20260506145503 37 17 8.0 19.0 0.00 0.00 0.01 82 1015.8
20260506144503 40 360 4.0 10.0 0.00 0.00 0.01 79 1015.1
20260506143503 41 25 5.0 14.0 0.00 0.00 0.01 78 1014.6
20260506142504 42 199 4.0 5.0 0.00 0.00 0.01 74 1014.4
20260506141504 42 360 0.0 5.0 0.00 0.00 0.01 75 1013.9
20260506140503 42 227 0.0 1.0 0.00 0.00 0.01 76 1013.6
20260506135503 43 169 1.0 4.0 0.00 0.00 0.01 75 1013.6
20260506134504 43 157 0.0 0.0 0.00 0.00 0.01 74 1013.8
20260506133503 42 157 0.0 0.0 0.00 0.00 0.01 75 1013.6
20260506132503 42 157 0.0 0.0 0.00 0.00 0.01 75 1013.8
20260506131504 42 157 0.0 4.0 0.00 0.00 0.01 76 1013.9
20260506130502 42 144 0.0 6.0 0.00 0.00 0.01 76 1013.9
20260506125503 42 360 0.0 0.0 0.00 0.00 0.01 76 1013.8
20260506124504 42 186 3.0 5.0 0.00 0.00 0.01 74 1013.6
20260506122404 42 133 0.0 0.0 0.00 0.00 0.01 72 1013.6
20260506120302 42 356 0.0 4.0 0.00 0.00 0.00 69 1013.6
20260506115306 43 323 4.0 6.0 0.00 0.00 0.00 68 1013.5
20260506114303 43 309 4.0 10.0 0.00 0.00 0.00 66 1013.2
20260506113304 43 349 0.0 3.0 0.00 0.00 0.00 60 1013.0
20260506112305 43 356 3.0 4.0 0.00 0.00 0.00 60 1012.8
20260506111303 44 8 0.0 7.0 0.00 0.00 0.00 61 1012.7
20260506110304 43 278 2.0 9.0 0.00 0.00 0.00 61 1012.6
20260506105305 43 116 2.0 6.0 0.00 0.00 0.00 60 1012.6
20260506104303 43 272 0.0 3.0 0.00 0.00 0.00 61 1012.6
20260506103304 43 360 2.0 5.0 0.00 0.00 0.00 60 1012.6
20260506101204 43 72 0.0 0.0 0.00 0.00 0.00 60 1012.6
20260506100203 42 72 0.0 3.0 0.00 0.00 0.00 61 1012.6
20260506095203 42 40 0.0 8.0 0.00 0.00 0.00 61 1012.6
20260506094204 42 8 2.0 7.0 0.00 0.00 0.00 61 1012.6
20260506093202 42 10 0.0 9.0 0.00 0.00 0.00 62 1012.6
20260506092202 42 17 3.0 0.0 0.00 0.00 0.00 61 1012.4
20260506091203 42 113 0.0 8.0 0.00 0.00 0.00 61 1012.4
20260506090204 42 360 2.0 2.0 0.00 0.00 0.00 62 1012.4
20260506085202 42 90 0.0 4.0 0.00 0.00 0.00 62 1012.6
20260506084205 42 137 0.0 3.0 0.00 0.00 0.00 62 1012.6
20260506083203 41 161 0.0 5.0 0.00 0.00 0.00 62 1012.6
20260506082204 41 285 2.0 5.0 0.00 0.00 0.00 62 1012.8
20260506081203 41 121 4.0 0.0 0.00 0.00 0.00 63 1012.8
20260506073004 42 131 0.0 2.0 0.00 0.00 0.00 60 1013.1
20260506072004 42 261 0.0 0.0 0.00 0.00 0.00 59 1013.2
20260506071005 42 267 3.0 7.0 0.00 0.00 0.00 58 1013.2
20260506060903 45 145 0.0 2.0 0.00 0.00 0.00 53 1013.4
20260506044605 47 352 3.0 7.0 0.00 0.00 0.00 48 1012.8
20260506043603 47 360 3.0 7.0 0.00 0.00 0.00 48 1012.7
20260506042602 48 37 0.0 10.0 0.00 0.00 0.00 47 1012.6
20260506041603 48 329 3.0 8.0 0.00 0.00 0.00 46 1012.4
20260506035503 48 346 3.0 10.0 0.00 0.00 0.00 40 1012.3
20260506034504 49 360 0.0 6.0 0.00 0.00 0.00 38 1012.0
20260506033504 49 360 2.0 9.0 0.00 0.00 0.00 38 1011.6
20260506032503 50 360 3.0 8.0 0.00 0.00 0.00 38 1011.5
20260506031503 50 243 3.0 11.0 0.00 0.00 0.00 38 1011.4
20260506030504 51 28 4.0 9.0 0.00 0.00 0.00 35 1011.4
20260506025505 51 161 0.0 9.0 0.00 0.00 0.00 33 1011.1
20260506023403 53 319 2.0 4.0 0.00 0.00 0.00 29 1011.1
20260506022403 53 360 3.0 8.0 0.00 0.00 0.00 27 1011.0
20260506021404 53 328 3.0 11.0 0.00 0.00 0.00 26 1011.1
20260506020405 54 152 1.0 10.0 0.00 0.00 0.00 25 1010.4
20260506015403 54 243 2.0 8.0 0.00 0.00 0.00 24 1010.6
20260506014404 55 96 9.0 16.0 0.00 0.00 0.00 23 1010.2
20260506013404 55 8 1.0 11.0 0.00 0.00 0.00 20 1010.0
20260506011303 55 360 1.0 9.0 0.00 0.00 0.00 21 1009.6
20260506010303 56 344 4.0 9.0 0.00 0.00 0.00 19 1009.5
20260506005305 56 18 5.0 10.0 0.00 0.00 0.00 19 1009.4
20260506004302 56 208 4.0 7.0 0.00 0.00 0.00 19 1009.5
20260506003303 56 18 7.0 11.0 0.00 0.00 0.00 18 1009.2
20260506002305 57 8 0.0 11.0 0.00 0.00 0.00 19 1009.2
20260506001302 57 23 4.0 18.0 0.00 0.00 0.00 19 1009.1
20260506000303 58 352 6.0 18.0 0.00 0.00 0.00 19 1009.0
20260505235305 59 10 3.0 10.0 0.00 0.00 0.00 19 1009.0
20260505234304 59 275 3.0 9.0 0.00 0.00 0.00 21 1009.1
20260505233303 58 196 3.0 9.0 0.00 0.00 0.00 24 1009.2
20260505231203 57 223 2.0 9.0 0.00 0.00 0.00 27 1009.2
20260505224003 54 52 9.0 17.0 0.00 0.00 0.00 30 1009.9
20260505223004 54 34 7.0 13.0 0.00 0.00 0.00 33 1010.6
20260505222002 55 330 4.0 14.0 0.00 0.00 0.00 31 1010.6
20260505221003 57 360 3.0 9.0 0.00 0.00 0.00 26 1010.2
20260505220004 57 45 3.0 9.0 0.00 0.00 0.00 25 1010.0
20260505215002 57 256 5.0 12.0 0.00 0.00 0.00 25 1010.2
20260505214003 58 360 0.0 18.0 0.00 0.00 0.00 22 1010.0
20260505213003 59 162 4.0 10.0 0.00 0.00 0.00 27 1009.8
20260505212004 58 360 3.0 9.0 0.00 0.00 0.00 26 1009.8
20260505211002 57 30 1.0 15.0 0.00 0.00 0.00 23 1009.8
20260505210003 56 116 3.0 17.0 0.00 0.00 0.00 24 1009.8
20260505205004 56 309 1.0 6.0 0.00 0.00 0.00 26 1009.9
20260505204002 56 28 5.0 10.0 0.00 0.00 0.00 28 1009.9
20260505203003 55 64 1.0 11.0 0.00 0.00 0.00 35 1010.0
20260505200903 55 110 7.0 13.0 0.00 0.00 0.00 33 1010.3
20260505195904 54 82 9.0 20.0 0.00 0.00 0.00 37 1010.2
20260505194903 56 49 16.0 24.0 0.00 0.00 0.00 33 1010.3
20260505193903 58 200 1.0 5.0 0.00 0.00 0.00 26 1009.9
20260505192904 58 357 0.0 4.0 0.00 0.00 0.00 26 1009.9
20260505191903 57 352 4.0 10.0 0.00 0.00 0.00 25 1010.0